星链-31257 (STARLINK-31257 )

导读

STARLINK-31257是美国SpaceX公司星链星座中的一颗卫星,于2024年2月29日发射升空,属于星链低轨互联网通信卫星组网的一部分。它运行在近地轨道,配备霍尔推进器与自主避撞系统,依托星链星座的激光星间链路、相控阵天线技术,可为全球偏远欠发达区域提供低延迟高速宽带互联网服务,卫星寿命结束后会主动离轨坠入大气层烧毁。

Basic Information
目录编号:
59079
目录名称:
STARLINK-31257
国际标识:
2024-041F
轨道中心:
EARTH
卫星名称:
星链-31257
卫星全名:
星链-31257 (STARLINK-31257 )
卫星状态:
在轨 (已飞行840 天)
发射日期:
2024-02-29 UTC
国别 :
美国 (US)
星等 :
--
Orbit Information
数据来源 国际轨道数据 AOE轨道数据
星历时间 2026-06-17T11:29:23+0800
1天前
查看轨道信息
2026-06-13T00:00:00+0800
5天前
查看轨道信息
半长轴 6861.176km 6861.228km
偏心率 0.0000559 0.0001033
轨道倾角 43.009° 43.001°
近地点辐角 282.545° 271.089°
升交点赤经 108.890° 134.185°
平近点角 77.534° 270.219°
近地点 482.655km 482.382km
远地点 483.423km 483.8km
周期 94.267分钟 94.268分钟
每日圈数 15.275835 15.275661
Detailed Information
固有亮度:
5
最大亮度:
0.3
卫星平台:
Starlink v2.0 mini
覆盖范围:
全球
运营商:
太空探索技术公司
运营商所在国:
美国
制造商(研发单位):
太空探索技术公司
制造商所在国:
美国
使用方式:
暂无
Satellite Introduction
星链(Starlink)计划是由太空探索技术公司(SpaceX)提出的一个巨型低轨卫星互联网星座项目,计划在2019年至2024年间在太空搭建由约1.2万颗卫星组成的“星链”网络,其中1584颗将部署在地球上空550千米处的近地轨道,并从2020年开始工作。该卫星仍在工作。
2D Orbit Map
3D Orbit Map
Orbit Altitude Analysis Chart
Orbit Inclination Analysis Chart
Orbit Comprehensive Analysis Chart
View Comprehensive Chart